Cancun, Mexico

7:09 AM on November 17, 2019 (GMT +0000)
Cancun International

Weather History for MMUN - October, 2019

Change the Weather History Date:

Wednesday, October 23, 2019

  Actual Average Record
Temperature  
Mean Temperature 78 °F -  
Max Temperature 86 °F 84 °F 93 °F (2004)
Min Temperature 71 °F 69 °F 57 °F (2011)
Cooling Degree Days 14    
Growing Degree Days 28 (Base 50)    
Moisture  
Dew Point 75 °F    
Average Humidity 94    
Maximum Humidity 100    
Minimum Humidity 74    
Precipitation  
Precipitation 1.30 in - - ()
Sea Level Pressure  
Sea Level Pressure 29.93 in    
Wind  
Wind Speed 4 mph ()    
Max Wind Speed 18 mph    
Max Gust Speed -    
Visibility 5.3 miles    
Events Rain , Thunderstorm    
Averages and records for this station are not official NWS values.
T = Trace of Precipitation, MM = Missing Value Source: Averaged Metar Reports

Daily Weather History Graph

Daily Weather History Graph

Search for Another Location

Airport or City:

Astronomy

Oct. 23, 2019 Rise Set
Actual Time 6:45 AM EST 6:17 PM EST
Civil Twilight 6:23 AM EST 6:39 PM EST
Nautical Twilight 5:57 AM EST 7:05 PM EST
Astronomical Twilight 5:31 AM EST 7:31 PM EST
Moon 1:58 AM EST (10/23) 3:18 PM EST (10/23)
Length of Visible Light 12h 16m
Length of Day
11h 31m
Waning Crescent, 26% of the Moon is Illuminated
Oct 23
Waning Crescent
Oct 27
New
Nov 4
First Quarter
Nov 12
Full
Nov 19
Last Quarter

Hourly Weather History & Observations

Time (EST) Temp. Heat Index Dew Point Humidity Pressure Visibility Wind Dir Wind Speed Gust Speed Precip Events Conditions
12:49 AM 77.0 °F - 77.0 °F 100% 29.94 in 4.0 mi NNW 6.9 mph - N/A Rain , Thunderstorm Light Thunderstorms and Rain
1:47 AM 75.2 °F - 75.2 °F 100% 29.93 in 4.0 mi NNW 2.3 mph - N/A Rain , Thunderstorm Light Thunderstorms and Rain
2:47 AM 73.4 °F - 73.4 °F 100% 29.91 in 4.0 mi Calm Calm - N/A Rain , Thunderstorm Light Thunderstorms and Rain
4:45 AM 75.2 °F - 75.2 °F 100% 29.93 in 4.0 mi WSW 3.5 mph - N/A Rain , Thunderstorm Light Thunderstorms and Rain
6:49 AM 71.6 °F - 71.6 °F 100% 29.95 in 4.0 mi North 3.5 mph - N/A Rain , Thunderstorm Light Thunderstorms and Rain
7:53 AM 71.6 °F - 71.6 °F 100% 29.89 in 3.0 mi North 2.3 mph - N/A Rain , Thunderstorm Light Thunderstorms and Rain
8:07 AM 71.6 °F - 71.6 °F 100% 30.01 in 0.5 mi East 18.4 mph - N/A Rain , Thunderstorm Heavy Thunderstorms and Rain
8:35 AM 71.6 °F - 71.6 °F 100% 29.98 in 3.0 mi NW 3.5 mph - N/A Rain , Thunderstorm Thunderstorms and Rain
8:51 AM 71.6 °F - 71.6 °F 100% 29.98 in 4.0 mi NNE 2.3 mph - N/A Rain , Thunderstorm Light Thunderstorms and Rain
9:08 AM 71.6 °F - 71.6 °F 100% 29.98 in 5.0 mi NNE 2.3 mph - N/A Rain , Thunderstorm Light Thunderstorms and Rain
9:52 AM 71.6 °F - 71.6 °F 100% 29.97 in 5.0 mi East 3.5 mph - N/A Rain Light Rain
10:50 AM 75.2 °F - 75.2 °F 100% 29.96 in 6.0 mi Calm Calm - N/A   Overcast
11:46 AM 80.6 °F 87.1 °F 77.0 °F 89% 29.95 in 6.0 mi South 2.3 mph - N/A   Overcast
12:46 PM 82.4 °F 90.9 °F 77.0 °F 84% 29.93 in 7.0 mi ENE 10.4 mph - N/A   Overcast
1:43 PM 84.2 °F 94.1 °F 77.0 °F 79% 29.89 in 7.0 mi ESE 11.5 mph - N/A   Mostly Cloudy
2:49 PM 86.0 °F 99.3 °F 78.8 °F 79% 29.88 in 7.0 mi East 12.7 mph - N/A   Mostly Cloudy
3:44 PM 86.0 °F 96.9 °F 77.0 °F 74% 29.87 in 7.0 mi East 10.4 mph - N/A   Mostly Cloudy
5:53 PM 82.4 °F 90.9 °F 77.0 °F 84% 29.89 in 7.0 mi East 6.9 mph - N/A   Mostly Cloudy
6:44 PM 80.6 °F 87.1 °F 77.0 °F 89% 29.91 in 7.0 mi ENE 3.5 mph - N/A   Mostly Cloudy
7:51 PM 80.6 °F 87.1 °F 77.0 °F 89% 29.91 in 7.0 mi East 3.5 mph - N/A   Scattered Clouds
8:45 PM 80.6 °F 89.3 °F 80.6 °F 100% 29.94 in 7.0 mi NE 3.5 mph - N/A   Scattered Clouds
9:48 PM 80.6 °F 89.3 °F 80.6 °F 100% 29.95 in 7.0 mi ENE 4.6 mph - N/A   Scattered Clouds
11:46 PM 80.6 °F 88.1 °F 78.8 °F 94% 29.93 in 7.0 mi ESE 5.8 mph - N/A   Scattered Clouds